Location: Peebles
(55.6412°N, 3.1714°W)
Time: 18:53:35
(UTC+01:00)

ISS - Pass Details

Date: 02 October 2021
Orbit: 417 x 423 km, 51.6° (Epoch: 23 October)

Event Time Altitude Azimuth Distance (km) Brightness Sun altitude
Rises 20:02:39 0° 273° (W) 2,365 2.1 -11.7°
Reaches altitude 10° 20:05:08 10° 256° (WSW) 1,500 0.2 -12.1°
Maximum altitude 20:07:37 19° 208° (SSW) 1,055 -1.5 -12.4°
Drops below altitude 10° 20:10:06 10° 160° (SSE) 1,497 -1.3 -12.8°
Enters shadow 20:10:21 - 157° (SSE) 1,575 -1.2 -12.8°
